Hourly Data Report for October 02, 2014

All times are specified in Local Standard Time (LST). Add 1 hour to adjust for Daylight Saving Time where and when it is observed.

KUGAARUK CLIMATE
NUNAVUT

68°32'15.060" N
89°47'47.020" W
15.80 m
2303094
71407
NBB

Download Data

Hourly Data (October 2014)
Hourly Data Report for October 2, 2014
Temp Definition
°C
Dew Point Temp Definition
°C
Rel Hum Definition
%
Wind Dir Definition
10's deg

Wind Spd Definition
km/h
Visibility Definition
km
Stn Press Definition
kPa
Hmdx Definition


Wind Chill Definition


Weather Definition


TIME
00:00 -4.9 -7.7 81 34 17   101.53   -11 LegendNANA
01:00 -4.8 -7.2 83 31 10   101.51   -9 LegendNANA
02:00 -5.4 -8.0 82 29 13   101.48   -11 LegendNANA
03:00 -5.8 -8.4 82 30 13   101.46   -11 LegendNANA
04:00 -6.8 -9.0 84 30 10   101.42   -11 LegendNANA
05:00 -7.6 -10.1 83 28 5   101.40   -10 LegendNANA
06:00 -5.9 -8.4 83 30 12   101.37   -11 LegendNANA
07:00 -5.2 -8.4 79 30 10   101.37   -10 LegendNANA
08:00 -5.0 -8.0 79 31 11   101.34   -10 LegendNANA
09:00 -4.3 -7.9 76 30 12   101.30   -9 LegendNANA
10:00 -3.8 -7.2 77 32 10   101.26   -8 LegendNANA
11:00 -3.4 -7.0 76 1 10   101.23   -7 LegendNANA
12:00 -3.0 -7.0 74 1 13   101.18   -8 LegendNANA
13:00 -3.0 -7.1 73 2 13   101.13   -8 LegendNANA
14:00 -3.5 -6.6 79 4 16   101.16   -9 LegendNANA
15:00 -3.5 -6.6 79 3 18   101.18   -9 LegendNANA
16:00 -3.7 -6.7 80 2 17   101.16   -9 LegendNANA
17:00 -3.7 -6.5 81 1 15   101.16   -9 LegendNANA
18:00 -3.9 -7.0 79 2 22   101.14   -10 LegendNANA
19:00 -4.1 -7.2 79 4 20   101.13   -10 LegendNANA
20:00 -4.2 -7.3 79 4 20   101.14   -11 LegendNANA
21:00 -4.3 -7.4 79 3 23   101.14   -11 LegendNANA
22:00 -4.6 -7.8 78 4 21   101.18   -11 LegendNANA
23:00 -4.7 -7.6 80 4 19   101.18   -11 LegendNANA

Notes on Data Quality.

Legend

  • E = Estimated
  • M = Missing
  • NA = Not Available
  • ‡ = Partner data that is not subject to review by the National Climate Archives
Date modified: